Probability
0 0 0 0 0 0 0 0 0 0 0 0 0 0 0 3 3 3 3 3 6 6 6 6 6 3 3 0 0 3 3 6 6 6 6 6 6 3 3 3 3 3 3 6
0 0 0 0 0 0 0 0 0 0 0 0 0 0 0 0 3 3 3 3 3 3 6 6 6 3 3 3 0 3 3 6 10 6 6 6 6 3 3 3 6 6 3 3
0 0 0 0 0 0 0 0 0 0 0 0 0 0 0 0 0 3 3 6 6 10 6 6 6 3 3 6 6 6 6 6 10 6 6 10 10 10 10 10 10 6 6 13
0 0 0 0 0 0 0 0 0 0 0 0 0 0 0 0 0 0 6 6 6 10 10 6 6 10 6 10 13 10 10 10 10 6 6 6 10 10 13 13 10 13 6 10
0 0 0 0 0 0 0 0 0 0 0 0 0 0 0 0 0 0 6 6 10 13 13 10 10 13 10 13 13 13 10 16 13 13 13 6 10 6 10 10 13 16 13 13
0 0 0 0 0 0 0 0 0 0 0 0 0 0 0 0 0 0 6 6 6 10 13 13 10 10 10 6 13 16 13 16 13 13 16 13 16 13 13 13 16 19 19 16
0 0 0 0 0 0 0 0 0 0 0 0 0 0 0 3 3 3 6 6 6 6 10 3 3 10 10 13 10 13 19 19 13 16 16 13 10 10 13 6 6 13 16 16
0 0 0 0 0 0 0 0 0 0 0 0 0 0 3 3 3 6 6 6 6 3 3 3 3 3 10 13 13 19 19 23 23 19 16 13 10 10 6 3 3 10 13 10
0 0 0 0 0 0 0 0 0 0 0 0 0 0 0 0 6 6 6 6 3 0 0 3 3 3 3 10 13 16 19 23 23 26 19 16 16 10 6 6 10 13 13 13
0 0 0 0 0 0 0 0 0 0 0 0 0 0 0 0 3 10 6 3 0 0 0 3 3 0 0 13 13 19 19 19 23 26 26 26 23 16 16 16 13 16 13 13
0 0 0 0 0 0 0 0 0 0 0 0 0 0 0 3 6 3 6 6 3 3 3 3 3 3 3 13 16 19 19 23 23 23 26 29 29 23 23 23 19 19 23 19
0 0 0 0 0 0 0 0 0 0 0 0 0 0 0 3 6 3 6 3 3 3 3 6 3 6 6 16 19 19 19 23 26 19 29 29 29 23 23 19 26 23 19 19
0 0 0 0 0 0 0 0 0 0 0 0 0 0 3 10 6 6 6 3 3 3 3 6 6 6 13 13 16 16 19 19 19 29 35 32 26 23 26 19 19 19 16 13
0 0 0 0 0 0 0 0 0 0 0 0 0 0 3 10 6 6 6 3 3 10 10 6 6 10 10 10 13 16 19 19 13 23 26 29 26 23 26 23 23 13 16 16
0 0 0 0 0 0 0 0 0 0 0 0 0 0 0 6 6 6 6 3 10 13 10 6 6 6 6 6 10 16 16 13 13 19 23 29 23 23 26 23 26 23 16 13
0 0 0 0 0 0 0 0 0 0 0 0 0 0 0 6 6 6 6 10 6 6 10 10 10 10 10 6 6 16 6 13 13 16 26 29 26 19 16 19 23 26 23 23
0 0 0 0 0 0 0 0 0 0 0 0 0 0 0 6 6 6 10 10 10 13 13 16 10 10 10 6 13 13 6 10 19 23 26 26 26 23 23 16 19 23 19 16
0 0 0 0 0 0 0 3 3 0 0 0 0 0 3 3 6 6 6 6 10 16 16 13 6 13 13 16 19 16 13 13 19 16 23 23 23 19 23 19 19 23 19 16
0 0 0 0 0 0 0 0 3 6 3 3 3 3 0 0 0 3 3 3 13 13 16 16 13 13 16 16 13 13 13 16 19 13 13 16 19 23 19 19 19 19 19 16
0 0 0 0 0 0 0 0 0 6 3 3 3 3 6 6 6 0 0 10 13 13 10 13 23 13 13 13 10 10 6 6 13 16 16 19 19 23 19 19 19 16 16 10
0 0 0 0 0 0 0 0 0 0 0 3 3 6 6 6 3 3 3 6 10 10 10 10 6 6 0 6 10 6 6 10 6 10 13 13 19 19 19 13 13 16 13 10
0 0 0 0 0 0 0 3 0 0 0 3 6 6 6 3 3 6 6 10 13 13 6 3 3 6 0 0 0 0 0 3 6 6 6 13 16 16 16 13 13 13 13 10
0 0 0 0 0 0 3 3 3 0 3 6 6 6 3 3 3 3 3 10 13 6 10 6 3 6 3 3 0 0 0 0 6 6 6 6 13 16 16 13 13 13 13 10
0 0 0 0 0 0 3 3 3 6 6 3 3 3 0 0 3 3 3 3 6 6 6 6 6 6 3 6 3 3 3 3 6 6 6 6 6 13 16 13 13 13 10 10
0 0 0 0 0 3 3 3 3 6 3 6 3 0 0 0 0 0 0 6 6 6 6 6 6 6 6 10 6 3 3 3 3 6 6 6 6 10 10 13 10 13 10 10
0 0 0 0 0 0 3 3 0 3 3 3 0 0 0 0 0 0 0 3 6 6 3 3 6 6 6 3 10 10 3 3 3 3 3 6 10 10 10 6 6 10 10 6
Height
5887 5890 5891 5893 5895 5896 5896 5897 5898 5899 5898 5898 5898 5899 5899 5899 5899 5898 5898 5897 5897 5896 5895 5894 5893 5892 5891 5890 5889 5889 5889 5889 5888 5888 5888 5887 5887 5887 5886 5886 5885 5885 5885 5885
5886 5888 5890 5891 5892 5894 5895 5896 5897 5898 5898 5898 5898 5898 5899 5899 5899 5899 5899 5898 5898 5897 5896 5895 5894 5893 5893 5892 5891 5891 5890 5890 5890 5889 5889 5888 5888 5887 5887 5886 5886 5886 5885 5885
5883 5886 5887 5888 5890 5892 5893 5895 5896 5897 5897 5897 5898 5898 5899 5899 5899 5899 5899 5899 5898 5897 5896 5896 5895 5895 5894 5893 5892 5892 5891 5891 5890 5890 5889 5889 5888 5888 5887 5887 5886 5886 5885 5885
5879 5882 5884 5886 5888 5889 5891 5893 5894 5895 5895 5895 5897 5897 5898 5898 5899 5899 5899 5899 5898 5898 5897 5896 5895 5895 5894 5894 5893 5892 5892 5891 5891 5890 5890 5889 5888 5888 5887 5887 5886 5885 5885 5884
5876 5879 5881 5883 5886 5887 5889 5890 5891 5892 5893 5894 5894 5895 5897 5897 5897 5898 5898 5898 5898 5897 5897 5896 5895 5895 5895 5894 5894 5893 5892 5891 5891 5891 5890 5889 5888 5888 5887 5886 5885 5885 5884 5883
5873 5875 5877 5880 5882 5884 5886 5887 5888 5889 5890 5891 5892 5893 5895 5895 5896 5897 5897 5897 5897 5896 5896 5896 5895 5895 5895 5894 5894 5893 5892 5892 5891 5890 5890 5889 5888 5887 5886 5886 5885 5884 5883 5882
5869 5871 5874 5876 5878 5880 5882 5884 5885 5886 5887 5889 5890 5890 5892 5893 5894 5895 5895 5895 5895 5895 5895 5895 5894 5894 5894 5894 5894 5893 5892 5891 5891 5890 5889 5888 5887 5887 5886 5885 5884 5883 5882 5882
5864 5868 5870 5872 5875 5877 5879 5881 5883 5884 5884 5886 5887 5887 5890 5891 5892 5892 5893 5893 5893 5893 5893 5893 5893 5893 5893 5893 5893 5892 5891 5891 5890 5889 5888 5887 5887 5886 5885 5884 5883 5882 5881 5880
5860 5864 5866 5868 5871 5873 5875 5876 5879 5880 5880 5882 5883 5885 5887 5888 5889 5890 5891 5890 5891 5891 5891 5891 5891 5892 5892 5892 5892 5891 5890 5889 5889 5888 5887 5886 5885 5885 5883 5882 5882 5881 5880 5879
5855 5859 5862 5864 5866 5868 5871 5873 5874 5875 5876 5877 5879 5881 5884 5885 5886 5887 5888 5888 5889 5889 5888 5888 5889 5889 5890 5890 5890 5889 5889 5888 5887 5887 5886 5885 5884 5883 5882 5882 5881 5880 5879 5877
5850 5854 5857 5859 5861 5863 5866 5868 5869 5871 5872 5873 5874 5879 5880 5881 5883 5884 5885 5885 5886 5886 5886 5886 5886 5887 5887 5887 5887 5887 5887 5886 5885 5885 5884 5883 5882 5881 5881 5880 5879 5878 5877 5875
5844 5848 5851 5854 5856 5858 5860 5862 5864 5866 5867 5868 5870 5876 5876 5877 5878 5880 5881 5882 5883 5883 5883 5883 5883 5884 5884 5884 5884 5885 5884 5884 5883 5882 5882 5881 5880 5879 5878 5877 5876 5875 5874 5873
5838 5841 5844 5848 5852 5853 5854 5856 5858 5861 5862 5863 5865 5871 5871 5872 5874 5875 5877 5878 5879 5880 5880 5880 5880 5880 5881 5881 5881 5881 5881 5881 5880 5880 5879 5878 5877 5876 5875 5874 5874 5873 5871 5870
5832 5835 5839 5842 5844 5846 5849 5851 5853 5855 5856 5858 5860 5863 5866 5868 5869 5871 5872 5874 5875 5876 5876 5876 5876 5877 5877 5877 5878 5878 5877 5877 5877 5877 5876 5875 5874 5873 5872 5871 5870 5869 5868 5867
5824 5828 5831 5835 5838 5840 5843 5845 5847 5849 5851 5853 5855 5857 5860 5863 5865 5866 5867 5869 5870 5871 5872 5872 5872 5872 5873 5873 5874 5874 5873 5873 5873 5873 5872 5871 5870 5869 5868 5867 5866 5865 5864 5863
5817 5821 5824 5828 5831 5833 5836 5839 5841 5843 5845 5847 5849 5852 5855 5857 5859 5861 5862 5864 5865 5866 5867 5867 5867 5868 5868 5869 5869 5869 5869 5869 5869 5868 5867 5866 5865 5864 5864 5863 5862 5861 5860 5859
5811 5815 5818 5821 5824 5826 5829 5833 5835 5837 5839 5841 5843 5847 5849 5851 5853 5855 5857 5858 5859 5861 5862 5862 5863 5863 5863 5863 5863 5863 5864 5864 5864 5863 5862 5861 5860 5859 5859 5858 5858 5856 5856 5855
5805 5808 5811 5814 5818 5819 5825 5826 5828 5830 5833 5835 5837 5840 5842 5845 5847 5848 5850 5852 5854 5855 5857 5857 5858 5858 5858 5859 5858 5858 5858 5859 5859 5858 5857 5856 5855 5855 5854 5853 5853 5852 5851 5850
5798 5801 5804 5807 5809 5812 5816 5819 5821 5824 5826 5828 5830 5833 5835 5837 5840 5842 5844 5846 5848 5849 5851 5852 5852 5853 5853 5853 5853 5853 5854 5854 5853 5853 5852 5851 5850 5849 5849 5848 5847 5847 5846 5845
5791 5794 5797 5799 5802 5805 5810 5812 5814 5817 5819 5822 5823 5825 5828 5830 5833 5836 5837 5839 5841 5843 5844 5845 5846 5846 5847 5848 5848 5848 5848 5848 5848 5847 5846 5845 5844 5843 5843 5842 5842 5841 5840 5839
5784 5787 5790 5793 5795 5798 5802 5804 5807 5810 5813 5815 5816 5819 5821 5823 5826 5828 5830 5833 5835 5836 5838 5839 5839 5840 5841 5841 5842 5842 5842 5842 5842 5841 5840 5839 5838 5837 5836 5836 5835 5834 5833 5832
5778 5780 5783 5786 5789 5794 5795 5797 5800 5802 5805 5807 5810 5812 5814 5817 5819 5821 5824 5826 5827 5829 5831 5832 5833 5833 5834 5835 5835 5836 5836 5836 5835 5834 5834 5833 5832 5831 5830 5829 5828 5827 5826 5825
5772 5775 5777 5781 5785 5786 5788 5790 5792 5794 5797 5800 5802 5805 5808 5810 5813 5815 5817 5819 5820 5822 5824 5825 5826 5826 5827 5827 5828 5829 5829 5829 5828 5827 5826 5826 5825 5824 5823 5822 5820 5819 5818 5817
5766 5768 5771 5774 5777 5780 5782 5784 5785 5788 5790 5792 5795 5798 5800 5803 5806 5808 5810 5812 5813 5814 5816 5817 5818 5819 5820 5820 5821 5821 5822 5821 5821 5820 5819 5818 5817 5816 5815 5813 5812 5811 5810 5809
5759 5762 5765 5768 5771 5774 5775 5777 5779 5781 5784 5786 5789 5791 5793 5796 5798 5800 5802 5804 5805 5807 5808 5809 5810 5812 5812 5813 5814 5814 5814 5813 5813 5812 5811 5811 5810 5808 5806 5805 5804 5803 5802 5800
5754 5757 5759 5762 5765 5767 5769 5771 5773 5775 5777 5780 5782 5785 5787 5789 5791 5792 5794 5796 5797 5799 5800 5801 5803 5804 5805 5805 5805 5805 5805 5805 5805 5804 5803 5802 5801 5800 5798 5797 5795 5794 5793 5792
Wind_Speed
15 14 12 12 11 10 9 7 5 4 3 2 1 1 1 2 3 4 5 6 6 7 7 8 8 8 8 8 8 8 8 8 7 7 6 6 6 5 5 4 4 3 2 1
16 14 13 14 13 12 11 10 7 6 6 5 4 3 1 1 1 2 3 4 4 5 6 7 7 7 7 7 7 7 7 7 6 6 6 5 5 5 4 3 3 2 2 2
17 16 15 15 15 14 12 11 9 8 8 8 7 5 4 3 2 0 1 2 3 3 4 4 5 5 5 6 6 6 6 6 5 5 5 5 5 5 4 2 2 1 2 3
19 18 17 17 16 15 14 12 11 11 11 11 10 8 6 5 4 3 2 1 1 2 2 2 2 3 3 4 4 4 4 4 5 5 4 4 4 4 4 4 2 2 3 4
19 19 18 17 16 16 15 15 13 13 13 13 11 11 8 7 6 5 5 3 2 2 2 2 2 2 2 2 2 3 2 3 3 4 4 5 5 4 4 4 3 3 4 4
21 20 20 18 18 18 17 17 16 15 15 15 13 13 10 8 7 7 6 5 5 4 3 3 3 2 2 3 3 3 2 2 3 4 5 5 5 4 5 4 4 4 5 4
23 22 21 20 20 20 19 19 18 18 18 16 15 15 12 10 9 9 8 7 7 6 5 5 4 4 3 3 4 4 3 3 3 4 5 6 5 5 5 5 5 5 5 5
24 23 21 21 20 20 20 19 20 19 18 17 17 16 14 12 10 10 10 9 9 9 8 7 7 6 5 5 5 5 4 4 4 4 5 6 6 6 6 6 6 6 7 6
26 24 22 22 21 21 21 21 21 21 20 19 19 17 15 13 11 11 11 10 9 9 9 9 9 9 8 6 6 6 5 5 5 6 6 7 7 7 7 7 7 7 7 7
28 26 25 23 23 23 23 22 22 23 22 21 20 18 15 13 13 13 12 11 10 10 10 10 10 10 9 9 8 7 6 6 6 6 7 8 9 8 8 8 8 8 8 8
29 28 26 25 25 24 24 24 24 24 23 22 21 19 16 15 14 14 13 11 10 10 10 10 11 11 11 10 9 8 8 7 7 7 8 9 10 9 9 10 10 10 10 9
29 28 27 26 27 26 26 26 26 25 25 24 23 21 19 18 17 16 15 13 11 11 11 12 12 12 12 12 10 10 10 10 9 9 9 10 10 10 11 11 12 12 12 11
29 30 29 28 28 28 28 28 27 26 26 25 25 22 21 20 19 18 16 14 13 12 12 12 12 13 13 13 12 12 11 11 11 11 11 12 12 12 13 13 13 13 13 13
30 30 30 29 28 28 28 27 27 26 26 26 25 24 23 21 19 19 18 16 15 14 14 13 13 13 13 13 13 13 13 13 13 13 13 13 13 14 14 15 15 15 15 15
30 30 30 29 29 29 29 29 28 28 27 26 25 25 22 21 20 20 19 18 16 15 14 14 14 14 14 14 14 15 15 16 15 15 15 15 15 15 16 16 16 16 16 15
30 30 30 30 29 30 30 29 29 29 28 27 26 25 22 21 21 21 21 19 18 17 16 16 15 16 17 16 16 16 16 17 17 17 17 17 17 17 18 17 17 17 16 16
31 30 30 30 30 31 30 30 29 29 29 29 27 24 23 23 22 22 22 21 20 19 18 17 17 17 18 19 19 18 17 18 19 19 19 19 19 20 19 19 19 18 18 18
32 32 31 30 30 31 29 29 30 30 29 30 29 27 24 23 22 22 22 22 20 20 19 18 18 18 18 19 20 20 19 19 20 20 20 20 20 20 20 20 20 19 19 19
31 32 31 31 31 31 30 29 30 30 29 30 29 28 26 24 23 24 23 23 22 21 20 19 19 19 20 20 20 20 20 20 21 22 22 22 22 22 22 21 21 20 20 21
28 29 30 30 30 31 29 29 29 29 29 30 29 28 27 25 24 23 23 23 22 22 21 21 21 20 21 21 21 20 20 21 22 22 23 24 24 24 24 23 22 22 22 23
26 27 28 29 29 29 29 29 29 30 29 28 28 28 27 26 24 23 24 24 23 23 22 22 22 22 22 22 22 21 22 23 23 24 24 24 24 23 23 24 24 24 25 25
26 27 27 28 28 28 27 27 29 30 29 29 28 27 27 26 25 25 25 25 24 23 23 23 23 23 22 23 24 24 23 23 23 24 24 23 24 25 25 26 27 27 27 27
27 26 27 27 27 26 26 26 27 28 28 29 29 28 27 26 26 26 27 26 26 25 24 24 24 24 24 25 26 25 25 24 23 24 24 25 25 26 26 27 27 27 27 27
27 27 27 26 25 25 24 24 25 26 27 28 28 27 27 27 27 27 28 28 28 27 27 26 25 26 26 25 25 25 25 25 25 25 26 26 27 27 27 27 28 28 28 29
27 27 27 26 25 24 24 24 24 26 27 27 26 25 25 26 27 28 30 29 29 29 28 27 27 27 26 25 25 26 25 25 26 26 27 27 27 27 27 28 29 29 29 29
25 26 26 25 24 25 24 24 25 26 26 25 25 25 25 26 27 28 30 30 30 29 28 27 26 26 27 27 27 27 28 27 27 27 28 28 28 28 29 29 29 29 30 30
Wind_Direction
223 221 218 216 216 219 221 221 221 221 216 211 192 138 72 69 57 52 47 53 55 57 61 62 61 58 61 71 77 79 77 75 72 70 69 72 72 69 64 58 67 62 47 45
221 219 219 221 221 222 225 229 231 231 233 235 238 244 227 203 77 51 44 49 54 58 60 66 61 58 56 58 62 66 70 68 65 61 57 64 62 58 56 49 61 52 30 16
222 221 221 226 229 227 228 238 241 238 238 243 244 252 250 244 228 246 20 36 44 47 50 62 60 60 56 55 58 63 59 56 51 47 48 49 46 43 42 43 47 12 336 328
223 223 224 227 232 232 231 239 244 244 247 245 248 256 253 253 244 248 261 292 350 2 17 34 39 51 54 50 53 55 57 47 38 38 37 31 30 30 24 11 351 326 312 301
225 224 225 228 232 234 233 236 241 245 249 249 251 255 252 254 252 247 249 257 286 291 301 341 0 18 16 11 17 29 35 27 15 14 14 12 12 9 5 359 360 341 337 309
227 227 226 227 228 231 231 234 240 245 248 249 249 253 251 251 250 246 245 254 267 274 279 299 313 310 318 326 335 351 357 355 349 350 352 350 350 353 357 355 350 340 330 321
228 228 228 227 228 231 233 236 240 244 247 250 250 251 251 252 253 247 250 260 263 271 279 277 285 287 289 305 312 322 323 321 326 336 339 339 340 338 343 345 345 339 330 318
229 228 229 229 230 234 236 240 245 250 253 253 253 253 253 254 254 254 259 263 268 268 274 270 268 268 270 278 293 300 305 307 312 316 321 326 328 325 326 333 332 328 327 319
230 230 229 229 230 233 236 239 245 251 253 253 253 252 253 253 252 254 259 259 265 271 272 265 259 259 260 266 278 287 291 297 303 305 307 312 318 316 315 318 319 317 317 317
232 232 230 230 231 233 236 241 244 247 249 252 254 252 254 252 252 253 257 261 265 268 266 263 255 257 259 262 266 275 282 288 293 298 304 308 311 312 311 313 314 315 317 321
232 233 231 231 231 235 238 239 243 247 250 252 253 251 251 252 254 256 260 264 267 262 262 263 262 259 258 259 260 267 274 280 286 292 299 303 302 303 308 310 309 308 308 310
232 233 232 231 232 234 237 240 244 246 251 254 255 253 252 253 256 258 260 260 261 259 258 261 261 259 255 254 256 262 270 276 281 287 293 297 298 299 300 300 298 300 305 308
234 234 233 232 233 234 237 239 242 246 250 253 256 256 253 253 256 258 259 257 256 260 262 262 258 255 254 254 256 261 267 275 280 286 292 293 293 296 299 297 295 296 298 304
236 236 236 236 235 236 238 240 242 246 249 254 256 256 254 253 255 257 258 258 256 259 262 259 257 254 255 257 259 262 266 271 275 280 286 288 289 289 291 291 292 294 298 301
236 237 236 236 235 237 239 240 243 246 250 254 255 254 253 253 253 254 257 260 259 262 263 262 262 259 256 259 262 264 266 268 270 273 279 281 283 284 286 287 289 291 295 298
236 238 237 237 237 238 240 241 243 244 247 251 253 251 250 252 254 256 256 257 260 263 263 263 264 265 262 261 261 263 266 268 270 274 276 278 282 284 285 286 290 290 292 294
237 240 241 242 241 241 241 240 242 243 244 248 250 250 248 251 255 256 255 258 261 262 264 266 266 269 264 265 264 265 266 270 271 272 274 277 280 283 284 286 288 290 289 291
238 240 242 244 243 245 245 244 243 243 245 247 249 251 252 253 253 254 255 257 260 261 262 266 268 268 267 267 265 264 266 270 270 272 275 277 282 287 286 284 285 287 287 287
238 239 242 245 246 246 246 245 245 245 246 246 248 250 252 252 252 253 256 259 261 263 264 266 269 268 268 268 266 265 266 267 270 272 274 275 278 282 286 286 286 285 285 286
239 240 242 244 245 247 247 246 247 248 248 248 251 252 254 253 254 254 256 257 258 261 262 265 267 266 266 266 265 264 265 267 269 271 274 274 276 278 282 284 284 283 282 284
239 240 241 244 246 247 248 248 247 247 248 249 252 253 255 256 257 254 255 256 257 259 262 265 266 266 265 262 263 265 267 268 270 272 274 276 278 279 281 283 283 281 281 283
241 240 240 243 245 248 249 251 249 248 249 249 251 253 254 256 256 253 253 255 256 257 261 264 265 265 263 261 262 264 267 271 273 274 277 280 280 279 280 281 282 282 282 282
240 240 241 242 246 247 250 252 251 249 249 248 250 252 253 253 253 252 251 253 255 256 259 263 264 263 262 263 263 264 267 270 273 275 277 279 280 279 278 280 283 283 282 282
240 239 241 243 244 247 250 251 251 248 247 248 249 250 251 252 252 251 251 251 254 256 259 261 264 263 261 261 261 264 267 270 273 276 278 279 280 281 282 283 282 281 281 281
241 240 242 244 245 247 249 249 249 247 248 248 248 250 251 252 252 253 252 253 255 257 259 260 262 263 262 264 264 266 268 271 273 275 277 279 281 283 282 281 281 281 281 281
240 240 241 244 246 248 249 248 250 249 249 248 247 248 248 250 253 255 256 257 256 255 257 258 260 262 264 265 266 267 269 271 273 276 278 279 281 282 283 283 282 281 283 283